Haleyville, AL

4:57 AM CDT on April 24, 2017 (GMT -0500)
Haleyville

Weather History for K1M4 - July, 2013

Change the Weather History Date:

Friday, July 26, 2013

  Actual Average (KJFX) Record (KJFX)
Temperature  
Mean Temperature 72 °F -  
Max Temperature 84 °F 89 °F 102 °F (2011)
Min Temperature 60 °F 68 °F 59 °F (2014)
Cooling Degree Days 7    
Growing Degree Days 22 (Base 50)    
Moisture  
Dew Point 64 °F    
Average Humidity 86    
Maximum Humidity 100    
Minimum Humidity 51    
Precipitation  
Precipitation 0.00 in - - ()
Sea Level Pressure  
Sea Level Pressure 30.10 in    
Wind  
Wind Speed 1 mph (WNW)    
Max Wind Speed 6 mph    
Max Gust Speed -    
Visibility 6 miles    
Events      
Averages and records for this station are not official NWS values.
T = Trace of Precipitation, MM = Missing Value Source: NWS Daily Summary

Daily Weather History Graph

Daily Weather History Graph

Search for Another Location

Airport or City:

Trip Planner

Search our weather history database for the weather conditions in past years. The results will help you decide how hot, cold, wet, or windy it might be!

Date:

Astronomy

Jul. 26, 2013 Rise Set
Actual Time 5:57 AM CDT 7:56 PM CDT
Civil Twilight 5:29 AM CDT 8:24 PM CDT
Nautical Twilight 4:55 AM CDT 8:57 PM CDT
Astronomical Twilight 4:19 AM CDT 9:34 PM CDT
Moon 10:26 PM CDT (7/26) 10:18 AM CDT (7/26)
Length of Visible Light 14h 54m
Length of Day
13h 59m
Waning Gibbous, 80% of the Moon is Illuminated
Jul 26
Waning Gibbous
Jul 29
Last Quarter
Aug 6
New
Aug 14
First Quarter
Aug 20
Full

Hourly Weather History & Observations

Time (CDT) Temp. Heat Index Dew Point Humidity Pressure Visibility Wind Dir Wind Speed Gust Speed Precip Events Conditions
12:56 AM 65.8 °F - 64.9 °F 97% 30.13 in 10.0 mi Calm Calm - N/A   Clear
1:56 AM 64.9 °F - 63.9 °F 96% 30.12 in 8.0 mi Calm Calm - N/A   Clear
2:56 AM 63.0 °F - 63.0 °F 100% 30.11 in 3.0 mi Calm Calm - N/A   Clear
3:56 AM 61.9 °F - 61.9 °F 100% 30.11 in 3.0 mi Calm Calm - N/A   Clear
4:10 AM 62.6 °F - 62.6 °F 100% 30.08 in 2.0 mi Calm Calm - N/A   Clear
4:38 AM 62.6 °F - 62.6 °F 100% 30.08 in 4.0 mi Calm Calm - N/A   Clear
4:56 AM 61.9 °F - 61.9 °F 100% 30.12 in 5.0 mi Calm Calm - N/A   Clear
5:12 AM 60.8 °F - 60.8 °F 100% 30.08 in 1.8 mi Calm Calm - N/A   Clear
5:20 AM 60.8 °F - 60.8 °F 100% 30.08 in 1.2 mi Calm Calm - N/A   Clear
5:30 AM 60.8 °F - 60.8 °F 100% 30.08 in 1.8 mi Calm Calm - N/A   Clear
5:37 AM 60.8 °F - 60.8 °F 100% 30.08 in 3.0 mi Calm Calm - N/A   Clear
5:44 AM 60.8 °F - 60.8 °F 100% 30.08 in 2.0 mi Calm Calm - N/A   Clear
5:47 AM 60.8 °F - 60.8 °F 100% 30.08 in 1.2 mi Calm Calm - N/A   Clear
5:49 AM 60.8 °F - 60.8 °F 100% 30.08 in 0.8 mi Calm Calm - N/A   Clear
5:56 AM 61.0 °F - 61.0 °F 100% 30.12 in 0.8 mi Calm Calm - N/A   Clear
6:02 AM 60.8 °F - 60.8 °F 100% 30.08 in 1.2 mi Calm Calm - N/A   Clear
6:19 AM 60.8 °F - 60.8 °F 100% 30.07 in 1.0 mi Calm Calm - N/A   Clear
6:32 AM 60.8 °F - 60.8 °F 100% 30.08 in 1.5 mi Calm Calm - N/A   Clear
6:38 AM 60.8 °F - 60.8 °F 100% 30.09 in 3.0 mi Calm Calm - N/A   Clear
6:56 AM 61.9 °F - 61.9 °F 100% 30.14 in 3.0 mi Calm Calm - N/A   Clear
7:56 AM 70.0 °F - 65.8 °F 87% 30.13 in 10.0 mi ENE 4.6 mph - N/A   Clear
8:56 AM 75.9 °F - 65.8 °F 71% 30.14 in 10.0 mi East 3.5 mph - N/A   Clear
9:56 AM 77.9 °F - 65.8 °F 66% 30.14 in 10.0 mi Variable 3.5 mph - N/A   Clear
10:56 AM 81.0 °F 82.7 °F 64.9 °F 58% 30.14 in 10.0 mi Variable 4.6 mph - N/A   Clear
11:56 AM 81.9 °F 83.2 °F 63.9 °F 54% 30.13 in 10.0 mi South 3.5 mph - N/A   Partly Cloudy
12:56 PM 81.0 °F 82.7 °F 64.9 °F 58% 30.12 in 10.0 mi WSW 5.8 mph - N/A   Mostly Cloudy
1:56 PM 83.8 °F 86.0 °F 65.8 °F 55% 30.12 in 10.0 mi Variable 4.6 mph - N/A   Scattered Clouds
2:56 PM 84.9 °F 86.6 °F 64.9 °F 51% 30.10 in 10.0 mi Variable 4.6 mph - N/A   Mostly Cloudy
3:56 PM 82.9 °F 85.0 °F 65.8 °F 56% 30.09 in 10.0 mi West 5.8 mph - N/A   Clear
4:56 PM 82.9 °F 85.0 °F 65.8 °F 56% 30.10 in 10.0 mi WSW 3.5 mph - N/A   Clear
5:56 PM 79.9 °F - 68.0 °F 67% 30.09 in 10.0 mi NW 3.5 mph - N/A   Clear
6:56 PM 77.0 °F - 68.9 °F 76% 30.08 in 10.0 mi Calm Calm - N/A   Clear
7:56 PM 74.8 °F - 68.0 °F 79% 30.08 in 10.0 mi North 3.5 mph - N/A   Clear
8:56 PM 72.0 °F - 68.0 °F 87% 30.07 in 10.0 mi Calm Calm - N/A   Clear
9:56 PM 70.9 °F - 68.9 °F 93% 30.06 in 10.0 mi Calm Calm - N/A   Clear
10:56 PM 70.9 °F - 68.0 °F 91% 30.06 in 10.0 mi Calm Calm - N/A   Clear
11:56 PM 70.0 °F - 68.9 °F 96% 30.06 in 10.0 mi Calm Calm - N/A   Clear